Hourly Data Report for October 09, 2015

All times are specified in Local Standard Time (LST). Add 1 hour to adjust for Daylight Saving Time where and when it is observed.

KUGAARUK CLIMATE
NUNAVUT

68°32'15.060" N
89°47'47.020" W
15.80 m
2303094
71407
NBB

Download Data

Hourly Data (October 2015)
Hourly Data Report for October 9, 2015
Temp Definition
°C
Dew Point Temp Definition
°C
Rel Hum Definition
%
Wind Dir Definition
10's deg

Wind Spd Definition
km/h
Visibility Definition
km
Stn Press Definition
kPa
Hmdx Definition


Wind Chill Definition


Weather Definition


TIME
00:00 -9.1 -12.2 78 6 7   100.06   -13 LegendNANA
01:00 -10.6 -12.6 85 5 14   100.09   -17 LegendNANA
02:00 -11.4 -13.1 87 6 16   100.12   -19 LegendNANA
03:00 -11.3 -13.0 87 7 13   100.17   -18 LegendNANA
04:00 -11.8 -13.5 87 6 11   100.20   -18 LegendNANA
05:00 -13.0 -14.9 86 7 18   100.25   -21 LegendNANA
06:00 -14.8 -16.9 84 7 8   100.31   -20 LegendNANA
07:00 -13.5 -15.4 85 9 8   100.36   -19 LegendNANA
08:00 -13.2 -15.4 84 11 6   100.43   -17 LegendNANA
09:00 -10.7 -14.7 73 8 4   100.47   -13 LegendNANA
10:00 -9.2 -14.0 68 8 2   100.52   -10 LegendNANA
11:00 -8.6 -12.7 72 12 5   100.58   -11 LegendNANA
12:00 -7.7 -12.4 69 12 3   100.61   -9 LegendNANA
13:00 -7.7 -12.0 71 13 3   100.67   -9 LegendNANA
14:00 -7.2 -10.8 75 13 1   100.72   -8 LegendNANA
15:00 -9.0 -12.8 74 12 2   100.77   -10 LegendNANA
16:00 -11.6 -13.9 83 8 2   100.80   -13 LegendNANA
17:00 -11.8 -13.0 91 10 4   100.84   -14 LegendNANA
18:00 -13.8 -15.3 89 5 6   100.89   -18 LegendNANA
19:00 -14.6 -16.1 88 8 3   100.90   -17 LegendNANA
20:00 -14.4 -15.8 89 5 4   100.90   -17 LegendNANA
21:00 -15.4 -17.0 88 0 1   100.91   -16 LegendNANA
22:00 -16.3 -17.9 88 6 4   100.92   -19 LegendNANA
23:00 -15.8 -17.4 88 6 3   100.92   -18 LegendNANA

Notes on Data Quality.

Legend

  • E = Estimated
  • M = Missing
  • NA = Not Available
  • ‡ = Partner data that is not subject to review by the National Climate Archives
Date modified: